Regional Weather Roundup
Issued by NWS Pendleton, OR

Home | Current Version | Previous Version | Text Only | Print | Product List | Glossary On
Versions: 1 2 3 4 5 6 7 8 9 10 11 12 13 14 15 16 17 18 19 20 21 22 23 24 25 26 27 28 29 30 31 32 33 34 35 36 37 38 39 40 41 42 43 44 45 46 47 48 49 50
000
ASUS46 KPDT 240225
RWRPDT
PENDLETON REGIONAL WEATHER ROUNDUP
NATIONAL WEATHER SERVICE PENDLETON OREGON
600 PM PST FRI FEB 23 2018

NOTE: FAIR INDICATES FEW OR NO CLOUDS BELOW 12,000 FEET WITH NO
SIGNIFICANT WEATHER AND/OR OBSTRUCTIONS TO VISIBILITY.

# INDICATES UNOFFICIAL STATION AND DATA

WAZ520-240310-
EAST SLOPES OF WASHINGTON CASCADES

CITY            SKY/WX      TMP DP  RH  WIND    PRES   REMARKS
#BULLFROG       N/A         26  23  88  CALM    N/A
#CLE ELUM HS    N/A         27  22  81  CALM    30.08F
#EASTON DOT     N/A         22  21  96  CALM    N/A
#ELK HTS DOT    N/A         26  26  100 CALM    N/A
#GLENWOOD       N/A         29  26  88  S9      30.35F
#NELSON 3SW     N/A         21  19  92  CALM    30.49F
#NILE           N/A         27  18  68  CALM    29.45F
#TEANAWAY 4NE   N/A         26  22  85  CALM    N/A
#TROUT LAKE 1NE N/A         28  23  81  W3      30.36F
#TROUT LAKE 1E  N/A         28  24  85  CALM    30.25F
$$

WAZ521-240310-
SIMCOE HIGHLANDS

CITY            SKY/WX      TMP DP  RH  WIND    PRES   REMARKS
#BICKLETON HS   N/A         21  16  81  W14     29.77F WCI  8
#SATUS PASS DOT N/A         23  16  74  N14     N/A    WCI 11
#CENTERVILLE 1SWN/A         27  21  78  CALM    30.35F
#GOLDENDALE 1NE N/A         30  10  42  S6      N/A
#GOLDENDALE 4W  N/A         28  14  55  S2      30.27F
#GOODNOE HILLS  N/A         29  19  66  W16     30.15F WCI 17
#LYLE 6NE       N/A         28  24  85  CALM    30.37F
#PITT 4SE       N/A         25  22  88  CALM    30.40F
$$

WAZ026-240310-
KITTITAS VALLEY

CITY            SKY/WX      TMP DP  RH  WIND    PRES   REMARKS
ELLENSBURG AP   CLOUDY      30  19  63  W5      30.16F
#ELLENSBURG CWU N/A         29  19  66  CALM    30.20F
#ELLENSBURG 3NE N/A         28  20  71  CALM    28.22F
#ELLENSBURG 1E  N/A         29  20  69  CALM    30.33F
#KITTITAS 3S    N/A         27  20  74  CALM    30.27F
#MANASTASH RDG  N/A         24  24  100 S3      N/A
#ROCKY CYN DOT  N/A         28  20  71  SW3     N/A
#RYEGRASS DOT   N/A         24  15  68  CALM    N/A
$$

WAZ027-240310-
YAKIMA VALLEY

CITY            SKY/WX      TMP DP  RH  WIND    PRES   REMARKS
SUNNYSIDE AP    PTCLDY      27  21  78  E9      30.25F
YAKIMA AIRPORT  MOCLEAR     31  19  61  SE8     30.22F
YAKIMA-VAGABOND CLEAR       28  19  68  S13     30.16F WCI 17
#DONALD 2NE     N/A         28   7  40  E8      29.05F
#GRANDVIEW      N/A         29  17  60  E1      30.32F
#MABTON         N/A         32  23  69  S6      30.24F
#MOXEE 2E       N/A         35  N/A N/A E3      29.93S
#NACHES 2SW     N/A         28  19  68  CALM    30.19S
#OUTLOOK DOT    N/A         30  24  78  NE3     30.21F
#PARKER DOT     N/A         30  20  66  W8      30.22F
#TERRACE HTS    N/A         28  20  71  CALM    30.27F
#TOPPENISH      N/A         30  22  72  CALM    30.21F
#I82 S UMTANUM RN/A         27  13  55  E3      N/A
#UNION GAP DOT  N/A         31  20  63  S5      30.25F
#W YAKIMA       N/A         28  20  71  CALM    30.28F
#WHITE SWAN 5E  N/A         27  19  71  CALM    30.30F
#WILEY CITY 3W  N/A         27  15  60  CALM    30.15F
#ZILLAH DOT     N/A         30  22  72  E14     N/A    WCI 19
$$

WAZ028-240310-
LOWER COLUMBIA BASIN...WASHINGTON

CITY            SKY/WX      TMP DP  RH  WIND    PRES   REMARKS
PASCO           CLOUDY      31  22  69  SW5     30.32F
PROSSER AWOS    N/A         30  21  69  S10     30.29F
RICHLAND AWOS   PTCLDY      32  22  66  MISG    30.29F
#BENTON CITY    N/A         28  20  71  CALM    30.22F
#CONNELL 5N     N/A         25  23  92  S6      30.32F
#CONNELL 5NW    N/A         25   4  40  N10     30.28F
#ELTOPIA 6NW    N/A         26  24  92  CALM    29.22F
#KAHLOTUS       N/A         26  23  88  W15     30.32F WCI 14
#KENNEWICK 3S   N/A         28  23  81  SE8     30.33F
#PATERSON       N/A         30  22  72  CALM    30.32F
#PROSSER DOT    N/A         30  21  69  CALM    30.27F
#SAGEMOOR 2W    N/A         26  23  88  S3      30.18F
#TOUCHET 2S     N/A         31  26  81  S17     30.32F WCI 20
#WEST PASCO     N/A         29  21  72  CALM    30.32F
$$

WAZ029-240310-
FOOTHILLS OF THE BLUES...WASHINGTON

CITY            SKY/WX      TMP DP  RH  WIND    PRES   REMARKS
WALLA WALLA AP  LGT SNOW    29  25  85  S17     30.30F FOG WCI 17
#CLYDE 6NW      N/A         26  24  92  S14     30.33F WCI 14
#DELANEY DOT    N/A         29  23  78  S9      30.30F
#LOWDEN 2SE     N/A         31  25  78  SW7     30.30F
#PLEASANT VIEW 1N/A         24  22  92  S18     30.36F WCI 10
#PRESCOTT       N/A         30  26  85  CALM    30.35S
#WHITMAN COLLEGEN/A         29  26  88  SE8     30.42F
#WAITSBURG 6SSE N/A         26  22  85  S12     30.19F WCI 15
#WALLA WALLA 5E N/A         28  25  88  S17     N/A    WCI 16
#WHITMAN MISSIONN/A         32  26  78  CALM    30.37F
$$

WAZ030-240310-
BLUE MOUNTAINS...WASHINGTON

CITY            SKY/WX      TMP DP  RH  WIND    PRES   REMARKS
#DIXIE 5SE      N/A         20  18  92  SW14    30.11F WCI  7
$$

ORZ009-041-WAZ024-240310-
COLUMBIA RIVER GORGE

CITY            SKY/WX      TMP DP  RH  WIND    PRES   REMARKS
HOOD RIVER AP   LGT SNOW    32  28  85  W8      30.30F
THE DALLES AP   CLOUDY      35  25  66  NE6     30.32F
#ARLINGTON AIRPON/A         29  20  69  SW2     30.34F
#ARLINGTON HS   N/A         31  18  58  CALM    30.23F
#CELILO DOT     N/A         34  19  54  SE1     N/A
#LYLE           N/A         36  26  67  S7      30.35F
#MARYHILL       N/A         32  20  61  N1      N/A
#MURDOCK        N/A         35  27  72  NW3     30.30F
#RUFUS DOT      N/A         36  N/A N/A NW3     N/A
#SMITHVILLE     N/A         34  26  72  N1      30.29F

$$

ORZ510-240310-
NORTH CENTRAL OREGON

CITY            SKY/WX      TMP DP  RH  WIND    PRES   REMARKS
#ANTELOPE       N/A         27  16  63  SW2     30.38F
#CHENOWITH 1W   N/A         27  23  85  SW1     N/A
#COW CYN RST AREN/A         27  11  50  S6      N/A
#DUFUR          N/A         29  21  72  CALM    30.33F
#DUFUR 9E       N/A         29  20  69  SW18    30.41F WCI 17
#GRASS VALLEY 1SN/A         29  20  69  SW14    30.22F WCI 18
#KENT DOT       N/A         27  10  48  S13     N/A    WCI 16
#MAUPIN SCHOOL  N/A         36  18  47  SW5     30.34F
#SHANIKO 4NW    N/A         24  14  65  SW7     30.19F
#TYGH VALLEY 2NEN/A         35  20  54  N10     30.35F
#WAPANITIA AIRPON/A         31  19  61  CALM    30.42F
#WASCO DOT      N/A         31  21  66  CALM    N/A
#WASCO 5NE      N/A         28  20  71  CALM    30.37F
$$

ORZ511-240310-
CENTRAL OREGON

CITY            SKY/WX      TMP DP  RH  WIND    PRES   REMARKS
BEND AIRPORT    CLOUDY      30  10  42  E5      30.26R
PRINEVILLE AP   CLOUDY      30  10  42  W7      30.26S
REDMOND AIRPORT CLOUDY      31   8  37  NW9     30.25S
#ASHWOOD SCHOOL N/A         29  19  66  CALM    30.21F
#BEND 1SW       N/A         28  16  60  CALM    N/A
#BEND-AWBREY    N/A         29  16  58  E1      30.49S
#BEND-KIM LN    N/A         29  14  53  CALM    30.43S
#CULVER         N/A         29  14  53  S7      30.29F
#CULVER 8W      N/A         30  10  42  CALM    30.23F
#LAKE BILLY CHINN/A         30  N/A N/A S6      30.34F
#POWELL BUTTE   N/A         28   0  29  NW2     30.18R
#PRINEVILLE     N/A         32  14  47  CALM    30.55S
#PRINEVILLE 3N  N/A         31  16  53  W1      30.46R
#WARM SPRINGS   N/A         31  21  66  CALM    30.23F

$$


ORZ509-240310-
EAST SLOPES OF OREGON CASCADES

CITY            SKY/WX      TMP DP  RH  WIND    PRES   REMARKS
SISTERS AWOS    N/A         28  10  46  W5      30.19F
#BLUE BOX PASS  N/A         21  N/A N/A NW2     N/A
#CAMP SHERMAN   N/A         26  14  60  E3      30.56F
#LA PINE DOT    N/A         27   7  42  W13     N/A    WCI 16
#LA PINE 4NW    N/A         25  12  57  CALM    30.62R
#LAVA BUTTE DOT N/A         25   4  40  S1      N/A
#SISTERS ODOT   N/A         29   9  42  W2      N/A
#SISTERS 3N     N/A         28   4  35  CALM    30.23F
#SUNRIVER       N/A         26   9  48  SW5     30.55R
#TUMALO 3W      N/A         28  10  46  CALM    30.33S
#WANOGA BUTTE D N/A         18   5  56  W8      N/A

$$

ORZ044-240310-
LOWER COLUMBIA BASIN...OREGON

CITY            SKY/WX      TMP DP  RH  WIND    PRES   REMARKS
HERMISTON       CLOUDY      31  23  72  S6      30.30F
#BOARDMAN SCHOOLN/A         32  20  61  S5      30.29F
#BOARDMAN 8SW   N/A         30  22  72  S5      30.32F
#ECHO 8SW       N/A         33  20  58  CALM    30.30F
#I-84 EX 198 DOTN/A         30  24  78  NE8     N/A
#IONE SCHOOL    N/A         33  19  56  S14     30.37F WCI 23
#UMATILLA       N/A         30  24  78  CALM    30.27F
$$

ORZ507-240310-
NORTHERN FOOTHILLS OF THE BLUES

CITY            SKY/WX      TMP DP  RH  WIND    PRES   REMARKS
PENDLETON AIRPT LGT SNOW    27  25  92  S13     30.28F FOG WCI 16
#ADAMS 3WNW     N/A         26  24  92  S9      30.40F
#ATHENA         N/A         26  24  92  SW5     30.43F
#HELIX SCHOOL   N/A         26  24  92  N15     30.38F WCI 14
#HELIX 3N       N/A         25  23  92  S16     30.25F WCI 12
#HOLDMAN 6E     N/A         25  23  92  SE13    30.16F WCI 13
#M-F GROVE ELEM N/A         28  22  78  S2      30.28F
#M-FREEWATER 5SEN/A         27  22  81  CALM    30.29F
#PENDLETON DNTN N/A         30  22  72  S5      N/A
#PDT AQUATIC CTRN/A         28  21  75  SE7     30.27F
#PDT SUNRIDGE   N/A         28  25  88  S7      30.31F
#PENDLETON 6SE  N/A         27  25  92  S9      30.35F
#PENDLETON 7NW  N/A         28  23  81  SE7     N/A
#PILOT ROCK 1S  N/A         27  19  71  SE7     30.28F
#PILOT ROCK     N/A         28  22  78  CALM    30.28F
#TUTUILLA       N/A         25  22  88  S7      30.35F
#UMAPINE 2E     N/A         31  26  81  S5      30.30F

$$

ORZ508-240310-
SOUTHERN FOOTHILLS OF THE BLUES

CITY            SKY/WX      TMP DP  RH  WIND    PRES   REMARKS
#AJAX           N/A         30  11  44  NW10    30.36F
#CONDON 5W      N/A         23  14  68  SW5     30.15F
#FOSSIL SCHOOL  N/A         30  15  53  SW2     30.16F
#HEPPNER EOC    N/A         26  21  81  SE5     30.35F
#HEPPNER 4NE    N/A         22  19  88  SW3     30.42F
#LEXINGTON 2SE  N/A         30  21  69  S9      30.23F
#MIKKALO        N/A         31  17  56  SW13    30.34F WCI 21
#OLEX 4N        N/A         31  21  66  S12     30.23F WCI 22
#RUGGS 5NE      N/A         23  20  88  S6      30.40S
#RUGGS 2SW      N/A         25  18  74  SW12    30.45F WCI 14

$$

ORZ502-503-240310-
BLUE MOUNTAINS

CITY            SKY/WX      TMP DP  RH  WIND    PRES   REMARKS
MEACHAM         SNOW        20  16  84  VRB3    30.18F VSB 1/2
#BATTLE MTN DOT N/A         18  15  88  S8      N/A
#GRANITE        N/A         17   1  49  N1      29.80S
#HARDMAN 10S    N/A         18  15  88  CALM    30.64F
#LADD CYN SMT   N/A         24   9  52  W5      N/A
#LADD CREEK ODOTN/A         26  10  50  NE2     N/A
#N POWDER DOT   N/A         26   9  48  N3      N/A
#PIKES PEAK     N/A         18  15  88  S26     27.99S WCI -
#SUMMERVILLE 5NWN/A         21  16  81  S3      28.13F
#TOLLGATE       N/A         12  10  91  CALM    30.11S
#TROY SCHOOL    N/A         32  15  49  S1      30.19F
#UKIAH          N/A         21  17  84  S3      30.40F
#WESTON 4E      N/A         20  18  92  S12     30.40F WCI  8
$$

ORZ505-240310-
JOHN DAY BASIN

CITY            SKY/WX      TMP DP  RH  WIND    PRES   REMARKS
JOHN DAY        CLOUDY      26  17  68  CALM    30.25R
#ANTELOPE 9ESE  N/A         32  18  56  CALM    N/A
#DAYVILLE SCHOOLN/A         30  15  53  CALM    30.24S
#MITCHELL 8NW   N/A         26  17  68  SW1     30.53S
#MONUMENT HS    N/A         27  19  71  E6      30.26F
#MT. VERNON 5SE N/A         22  13  68  CALM    30.17R
#SPRAY SCHOOL   N/A         29  N/A N/A NE2     N/A
$$

ORZ506-240310-
OCHOCO AND JOHN DAY HIGHLANDS

CITY            SKY/WX      TMP DP  RH  WIND    PRES   REMARKS
#HORSE RIDGE DO N/A         28  11  48  W8      N/A
#IZEE 6NW       N/A         25  14  62  SW1     N/A
#KEYES SMT DOT  N/A         21  16  81  CALM    N/A
#PAULINA ODOT   N/A         27  12  53  CALM    N/A
#PRAIRIE CITY   N/A         25   8  48  CALM    30.40R
#SENECA         N/A         21  N/A N/A N1      N/A
#SENECA 9NW     N/A         20  13  74  CALM    30.53R
$$

ORZ049-240310-
GRANDE RONDE VALLEY

CITY            SKY/WX      TMP DP  RH  WIND    PRES   REMARKS
LA GRANDE       MOCLDY      27  13  55  W9      30.25S
#COVE SCHOOL    N/A         27  14  57  CALM    30.24S
#COVE 6NW       N/A         28  16  60  CALM    30.43S
#ELGIN 3N       N/A         23   8  52  S2      30.18S
#ELGIN 1E       N/A         26  15  63  CALM    N/A
#IMBLER SCHOOL  N/A         25  15  65  CALM    30.19R
#ISLAND CITY 4N N/A         35  32  89  SW5     30.36F
#LADD CYN DOT   N/A         26  12  55  W6      N/A
#UNION 1S       N/A         27  16  63  CALM    30.44F
$$

ORZ050-240310-
WALLOWA COUNTY

CITY            SKY/WX      TMP DP  RH  WIND    PRES   REMARKS
#ENTERPRISE HS  N/A         19  12  74  CALM    30.31F
#IMNAHA SCHOOL  N/A         31  19  61  N5      30.24S
#IMNAHA 10S     N/A         26  19  74  S1      30.18F
#JOSEPH 3N      N/A         16   5  61  CALM    30.16F
#LOSTINE        N/A         19  11  70  CALM    30.23F
#LOSTINE 3SE    N/A         19  10  67  W2      30.20F
#MT HOWARD 8000 N/A          7   2  79  SW5     29.83F
#WALLOWA LAKE   N/A         18  13  80  CALM    30.13F
#WALLOWA SCHOOL N/A         23  12  62  CALM    30.16F



$$



USA.gov is the U.S. government's official web portal to all federal, state and local government web resources and services.